Hourly Weather Roundup
Issued by NWS Central Illinois

Home | Current Version | Previous Version | Text Only | Print | Product List | Glossary On
Versions: 1 2 3 4 5 6 7 8 9 10 11 12 13 14 15 16 17 18 19 20 21 22 23 24 25 26 27 28 29 30 31 32 33 34 35 36 37 38 39 40 41 42 43 44 45 46 47 48 49 50
000
NZUS43 KILX 021010
HWRILX

AREA WEATHER ROUNDUP
NATIONAL WEATHER SERVICE, LINCOLN IL
400 AM CST MON MAR 02 2015


CITY           SKY/WX    TMP DP  RH WIND       PRES   REMARKS
BLOOMINGTON    CLOUDY    18  14  84 W8        30.47S WCI   8
CHAMPAIGN      CLOUDY    14  11  87 W7        30.47R WCI   4
DECATUR        CLOUDY    20  15  81 W6        30.49S WCI  12
FLORA          PTCLDY    18  17  95 NW3       30.52R FOG
GALESBURG      PTCLDY    14  11  87 W5        30.47S WCI   7
JACKSONVILLE   MOCLDY    20  16  87 SW5       30.50S WCI  13
LACON          MOCLDY    17  10  73 W6        30.48S WCI   9
LAWRENCEVILLE  PTCLDY    14  12  92 NW3       30.51R FOG
LITCHFIELD     CLEAR     12   9  87 NW8       30.50S FOG     WCI   1
$$


CITY           SKY/WX    TMP DP  RH WIND       PRES   REMARKS
LINCOLN        CLOUDY    22  17  81 CALM      30.51F
MACOMB         MOCLDY    15  13  90 W7        30.51R WCI   5
MATTOON        MOCLDY    18  13  80 NW9       30.48R WCI   7
MT CARMEL AP   PTCLDY    23  19  86 CALM      30.51R
OLNEY-NOBLE AP PTCLDY    18  14  86 NW5       30.52R FOG     WCI  11
PARIS          MOCLDY    17  14  89 NW5       30.50R WCI  10
PEORIA         CLOUDY    23  13  65 NW7       30.49S WCI  15
PONTIAC        MOCLDY    11   9  89 CALM      30.48R
RANTOUL        CLOUDY    16  12  84 W7        30.46S WCI   7
ROBINSON       PTCLDY    13  11  94 CALM      30.52R FOG
SPRINGFIELD    CLOUDY    18  14  84 W5        30.50F WCI  11
TAYLORVILLE    MOCLDY    18  16  93 CALM      30.50S
$$

...REGIONAL REPORTS...


CITY           SKY/WX    TMP DP  RH WIND       PRES   REMARKS
CHICAGO O`HARE CLEAR     15   7  70 W10       30.41S WCI   2
KANKAKEE       MOCLDY     1  -3  87 W8        30.46R WCI -14
MOLINE         PTCLDY    13   7  77 W7        30.48S WCI   3
MOUNT VERNON   PTCLDY     9   1  72 CALM      30.51R
PITTSFIELD     MOCLDY    20  17  88 W6        30.51S WCI  12
QUINCY         CLOUDY    19  15  84 S6        30.49S FOG     WCI  11
ROCKFORD       PTCLDY    12   6  77 W5        30.45R WCI   4
$$


CITY           SKY/WX    TMP DP  RH WIND       PRES   REMARKS
BURLINGTON     PTCLDY    19  13  77 NW6       30.48S WCI  11
CEDAR RAPIDS   PTCLDY     6   4  91 W8        30.46S WCI  -7
DES MOINES     MOCLDY    20  12  71 CALM      30.50S
KIRKSVILLE     CLOUDY    19  17  92 W3        30.49S
OTTUMWA        PTCLDY    17  12  80 NW8       30.49S WCI   7
ST LOUIS       PTCLDY    18  14  84 CALM      30.51S
$$


CITY           SKY/WX    TMP DP  RH WIND       PRES   REMARKS
TERRE HAUTE    MOCLDY    19  13  77 N5        30.48R WCI  12
EVANSVILLE     CLEAR     26  19  74 N6        30.51R WCI  19
INDIANAPOLIS   CLOUDY    20  11  68 NW16      30.44R WCI   6
LAFAYETTE      CLOUDY    15   9  76 W3        30.46R
MADISON        CLEAR      9   5  84 W3        30.40R
MILWAUKEE      CLEAR     17   6  62 W7        30.39R WCI   8
$$




USA.gov is the U.S. government's official web portal to all federal, state and local government web resources and services.